Volver al catálogo

SDA_1672

ActivoMilitarPO
NORAD 65982·PAYLOAD·🇺🇸 United States

Lanzado Oct 15, 2025 desde Vandenberg Space Force Base

Loading…

Próximos Pases (próximas 24 horas)

TLE

ActualizadoSource: Space-Track

Época: Sep 14, 2026, 14:16 UTC

1 65982U 25230J   26257.59478493  .00000146  00000-0  12413-3 0  9998
2 65982  81.3012 129.5169 0000907  70.7254 289.3999 13.82263272 46141

Sigue SDA_1672 en tiempo real con AllMySat

Download on the App Store